Weather History for Frankfort, KY

Change the Weather History Date:

Friday, January 17, 2014

  Actual Average Record
Temperature  
Mean Temperature 23 °F 32 °F  
Max Temperature 33 °F 42 °F 69 °F (1928)
Min Temperature 12 °F 23 °F -17 °F (1977)
Degree Days  
Heating Degree Days 42 33  
Month to date heating degree days 598 561  
Since 1 July heating degree days 2529 2393  
Cooling Degree Days 0 0  
Month to date cooling degree days 0 0  
Year to date cooling degree days 0 0  
Moisture  
Dew Point 22 °F    
Average Humidity 78    
Maximum Humidity 100    
Minimum Humidity 56    
Precipitation  
Precipitation 0.07 in 0.11 in 1.16 in (2006)
Month to date precipitation 2.10 1.95  
Year to date precipitation 2.10 1.95  
Sea Level Pressure  
Sea Level Pressure 29.89 in    
Wind  
Wind Speed 9 mph (WSW)    
Max Wind Speed 18 mph    
Max Gust Speed 24 mph    
Visibility 6 miles    
Events Snow , Thunderstorm    
T = Trace of Precipitation, MM = Missing Value Source: NWS Daily Summary

Daily Weather History Graph

Daily Weather History Graph

Search for Another Location

Airport:

Trip Planner

Search our weather history database for the weather conditions in past years. The results will help you decide how hot, cold, wet, or windy it might be!

Date:

Astronomy

Jan. 17, 2014 Rise Set
Actual Time 7:54 AM EST 5:45 PM EST
Civil Twilight 7:25 AM EST 6:14 PM EST
Nautical Twilight 6:52 AM EST 6:46 PM EST
Astronomical Twilight 6:21 AM EST 7:18 PM EST
Moon 7:29 PM EST (1/17) 8:23 AM EST (1/17)
Length of Visible Light 10h 49m
Length of Day
9h 51m
Full, 98% of the Moon is Illuminated
Jan 17
Full
Jan 24
Last Quarter
Jan 30
New
Feb 6
First Quarter
Feb 14
Full

Hourly Weather History & Observations

Time (EST) Temp. Windchill Dew Point Humidity Pressure Visibility Wind Dir Wind Speed Gust Speed Precip Events Conditions
12:53 AM 32.0 °F 27.5 °F 30.9 °F 96% 29.83 in 5.0 mi South 4.6 mph - 0.00 in Snow Light Snow
1:01 AM 32.0 °F 26.4 °F 30.9 °F 96% 29.81 in 3.0 mi South 5.8 mph - 0.00 in Snow Light Snow
1:08 AM 32.0 °F 26.4 °F 30.0 °F 92% 29.81 in 4.0 mi South 5.8 mph - 0.00 in Snow Light Snow
1:53 AM 28.0 °F 21.7 °F 27.0 °F 96% 29.83 in 10.0 mi South 5.8 mph - 0.00 in   Mostly Cloudy
2:53 AM 30.0 °F 25.2 °F 28.0 °F 92% 29.81 in 10.0 mi SE 4.6 mph - N/A   Mostly Cloudy
3:49 AM 28.4 °F 22.2 °F 28.4 °F 100% 29.79 in 10.0 mi South 5.8 mph - N/A   Mostly Cloudy
3:53 AM 30.0 °F 23.2 °F 28.9 °F 96% 29.81 in 10.0 mi South 6.9 mph - N/A   Mostly Cloudy
4:00 AM 32.0 °F 24.2 °F 30.0 °F 92% 29.79 in 10.0 mi South 9.2 mph - N/A   Overcast
4:15 AM 32.0 °F 23.6 °F 30.9 °F 96% 29.79 in 8.0 mi South 10.4 mph - N/A   Overcast
4:29 AM 32.0 °F 24.8 °F 30.9 °F 96% 29.78 in 9.0 mi South 8.1 mph - N/A   Overcast
4:53 AM 32.0 °F 24.8 °F 32.0 °F 100% 29.79 in 10.0 mi South 8.1 mph - N/A   Overcast
5:14 AM 32.0 °F 25.6 °F 30.9 °F 96% 29.77 in 6.0 mi SSW 6.9 mph - 0.00 in   Overcast
5:53 AM 30.9 °F 22.8 °F 30.0 °F 96% 29.77 in 10.0 mi SSE 9.2 mph - 0.00 in   Mostly Cloudy
6:39 AM 32.0 °F 24.8 °F 30.9 °F 96% 29.77 in 2.0 mi South 8.1 mph - 0.01 in Snow Light Snow
6:42 AM 32.0 °F 24.2 °F 32.0 °F 100% 29.77 in 1.5 mi SSW 9.2 mph - 0.01 in Snow , Thunderstorm Light Snow
6:53 AM 32.0 °F 25.6 °F 32.0 °F 100% 29.78 in 1.2 mi SSW 6.9 mph - 0.03 in Snow , Thunderstorm Light Snow
6:58 AM 32.0 °F 27.5 °F 32.0 °F 100% 29.76 in 2.0 mi South 4.6 mph - 0.00 in Snow , Thunderstorm Light Snow
7:05 AM 32.0 °F 25.6 °F 32.0 °F 100% 29.76 in 4.0 mi South 6.9 mph - 0.00 in Snow , Thunderstorm Light Snow
7:12 AM 32.0 °F 26.4 °F 32.0 °F 100% 29.77 in 3.0 mi South 5.8 mph - 0.00 in Snow Light Snow
7:16 AM 32.0 °F 25.6 °F 32.0 °F 100% 29.77 in 2.5 mi South 6.9 mph - 0.00 in Snow Light Snow
7:20 AM 32.0 °F 26.4 °F 32.0 °F 100% 29.77 in 1.0 mi South 5.8 mph - 0.01 in Snow Light Snow
7:23 AM 32.0 °F 26.4 °F 32.0 °F 100% 29.77 in 0.8 mi South 5.8 mph - 0.02 in Snow Light Snow
7:28 AM 32.0 °F 24.2 °F 32.0 °F 100% 29.77 in 1.0 mi SSW 9.2 mph - 0.02 in Snow Light Snow
7:31 AM 32.0 °F 24.2 °F 32.0 °F 100% 29.77 in 1.5 mi SW 9.2 mph - 0.02 in Snow Light Snow
8:29 AM 30.9 °F 23.5 °F 30.0 °F 96% 29.79 in 6.0 mi WSW 8.1 mph - 0.02 in Snow Light Snow
8:35 AM 30.9 °F 22.2 °F 30.0 °F 96% 29.79 in 9.0 mi WSW 10.4 mph - 0.02 in   Overcast
8:53 AM 30.9 °F 24.3 °F 30.0 °F 96% 29.82 in 10.0 mi West 6.9 mph - 0.02 in   Overcast
8:56 AM 30.9 °F 24.3 °F 30.0 °F 96% 29.80 in 10.0 mi WSW 6.9 mph - N/A   Overcast
9:03 AM 30.9 °F 23.5 °F 30.0 °F 96% 29.81 in 2.5 mi WNW 8.1 mph - 0.00 in Snow Light Snow
9:18 AM 30.0 °F 20.5 °F 28.0 °F 92% 29.83 in 5.0 mi WNW 11.5 mph 16.1 mph 0.00 in Snow Light Snow
9:45 AM 26.1 °F - 23.0 °F 88% 29.86 in 9.0 mi North - - 0.00 in   Overcast
9:53 AM 25.0 °F 14.2 °F 19.9 °F 81% 29.89 in 8.0 mi WNW 11.5 mph 24.2 mph 0.00 in Snow Light Snow
10:07 AM 24.1 °F 12.5 °F 19.9 °F 84% 29.88 in 1.8 mi West 12.7 mph 24.2 mph 0.00 in Snow Light Snow
10:18 AM 24.1 °F 13.7 °F 19.0 °F 81% 29.88 in 3.0 mi WNW 10.4 mph 21.9 mph 0.00 in Snow Light Snow
10:53 AM 24.1 °F 11.5 °F 18.0 °F 77% 29.92 in 7.0 mi West 15.0 mph 23.0 mph 0.00 in   Overcast
11:34 AM 23.0 °F 12.4 °F 18.0 °F 81% 29.91 in 1.8 mi WNW 10.4 mph 19.6 mph 0.00 in Snow Light Snow
11:41 AM 23.0 °F 13.9 °F 18.0 °F 81% 29.91 in 1.8 mi West 8.1 mph - 0.00 in Snow Light Snow
11:53 AM 23.0 °F 11.7 °F 18.0 °F 81% 29.93 in 1.5 mi WNW 11.5 mph 19.6 mph 0.00 in Snow Light Snow
12:03 PM 21.9 °F 11.0 °F 18.0 °F 85% 29.91 in 2.5 mi WNW 10.4 mph 19.6 mph 0.00 in Snow Light Snow
12:14 PM 21.9 °F 11.7 °F 17.1 °F 82% 29.91 in 2.0 mi West 9.2 mph 19.6 mph 0.00 in Snow Light Snow
12:25 PM 21.9 °F 10.4 °F 15.1 °F 75% 29.91 in 6.0 mi West 11.5 mph 20.7 mph 0.00 in Snow Light Snow
12:53 PM 21.0 °F 10.6 °F 15.1 °F 78% 29.93 in 4.0 mi WNW 9.2 mph - 0.00 in Snow Light Snow
1:07 PM 21.0 °F 9.3 °F 15.1 °F 78% 29.91 in 1.8 mi West 11.5 mph - 0.00 in Snow Light Snow
1:26 PM 19.9 °F 7.9 °F 16.0 °F 85% 29.92 in 0.8 mi WNW 11.5 mph - 0.00 in Snow Light Snow
1:46 PM 21.0 °F 10.6 °F 16.0 °F 81% 29.92 in 1.2 mi West 9.2 mph - 0.00 in Snow Light Snow
1:51 PM 21.2 °F 10.9 °F 15.8 °F 80% 29.92 in 3.0 mi West 9.2 mph - 0.00 in Snow Light Snow
1:53 PM 21.0 °F 9.9 °F 16.0 °F 81% 29.95 in 3.0 mi West 10.4 mph - 0.00 in Snow Light Snow
2:27 PM 21.0 °F 9.9 °F 14.0 °F 74% 29.94 in 7.0 mi West 10.4 mph 17.3 mph 0.00 in Snow Light Snow
2:53 PM 19.9 °F 6.2 °F 12.0 °F 71% 29.98 in 10.0 mi West 15.0 mph 23.0 mph 0.00 in   Overcast
3:53 PM 19.9 °F 8.6 °F 10.9 °F 68% 30.02 in 10.0 mi WSW 10.4 mph 18.4 mph N/A   Overcast
4:53 PM 19.0 °F 7.5 °F 7.0 °F 59% 30.04 in 10.0 mi West 10.4 mph - N/A   Overcast
5:53 PM 18.0 °F 5.4 °F 8.1 °F 65% 30.06 in 10.0 mi West 11.5 mph 20.7 mph N/A   Overcast
6:53 PM 18.0 °F 7.7 °F 10.0 °F 71% 30.08 in 9.0 mi WSW 8.1 mph - N/A   Overcast
7:04 PM 17.1 °F 7.6 °F 10.9 °F 77% 30.06 in 4.0 mi WSW 6.9 mph - 0.00 in Snow Light Snow
7:12 PM 17.1 °F 3.6 °F 12.0 °F 81% 30.06 in 1.8 mi WSW 12.7 mph 19.6 mph 0.00 in Snow Light Snow
7:21 PM 17.1 °F 5.0 °F 12.0 °F 81% 30.07 in 4.0 mi West 10.4 mph - 0.00 in Snow Light Snow
7:43 PM 16.0 °F 2.3 °F 10.0 °F 77% 30.07 in 9.0 mi WSW 12.7 mph 17.3 mph 0.00 in   Scattered Clouds
7:53 PM 16.0 °F 3.6 °F 10.0 °F 77% 30.11 in 10.0 mi West 10.4 mph - 0.00 in   Partly Cloudy
8:53 PM 15.1 °F 6.4 °F 8.1 °F 74% 30.11 in 10.0 mi West 5.8 mph - N/A   Mostly Cloudy
9:53 PM 15.1 °F 7.7 °F 9.0 °F 77% 30.12 in 10.0 mi West 4.6 mph - N/A   Overcast
10:53 PM 15.1 °F 7.7 °F 7.0 °F 70% 30.13 in 10.0 mi WSW 4.6 mph - N/A   Overcast
11:53 PM 12.0 °F 4.1 °F 7.0 °F 80% 30.12 in 10.0 mi WSW 4.6 mph - N/A   Overcast